(136228) = 2003 WN106

Discovered at Socorro on 2003-11-21 by LINEAR.

Orbit

Orbit type: Main Belt

Note: WebGL enabled browser required.

epoch2023-09-13.0
epoch JD2460200.5
perihelion date2025-06-30.12409
perihelion JD2460856.62409
argument of perihelion (°)328.82962
ascending node (°)113.33086
inclination (°)6.23312
eccentricity0.1930480
perihelion distance (AU)1.9004036
Tisserand w.r.t. Jupiter3.5
ΔV w.r.t. Earth (km/sec)8.8
semimajor axis (AU)2.3550392
mean anomaly (°)181.06610
mean daily motion (°/day)0.27271350
aphelion distance (AU)2.810
period (years)3.61
P-vector [x]0.13358929
P-vector [y]0.93014908
P-vector [z]0.34201842
Q-vector [x]-0.98600940
Q-vector [y]0.09002818
Q-vector [z]0.14028680
absolute magnitude16.29
phase slope0.15
uncertainty0
referenceMPEC 2023-N20
observations used874
oppositions15
arc length (days)9612
first opposition used1997
last opposition used2023
residual rms (arc-secs)0.70
perturbers coarse indicatorM-v
perturbers precise indicator003Ek
first observation date used1997-03-12.0
last observation date used2023-07-06.0
computer nameMPCLINUX
JD of orbit computation2456937.412749
perihelion JD uncertainty (days)4.2395E-05
argument of perihelion uncertainty (°)3.8483E-05
ascending node uncertainty (°)3.6824E-05
inclination uncertainty (°)4.4550E-06
eccentricity uncertainty 4.6574E-08
perihelion distance uncertainty (AU)1.1448E-07
Minimum Orbit Intersection Distances (in AU)
for orbit epoch: 2460000.5, reference: E2023-N20
Mercury1.59618
Venus1.18316
Earth0.91923
Mars0.32743
Jupiter2.42336
Saturn7.15042
Uranus16.0596
Neptune27.5415

Observations

889 total observations over interval: 1997 03 12.19515 – 2023 07 06.305556
These data are available for download (format description).

Date (UT) J2000 RA J2000 Dec Magn Location Ref
1997 03 12.19515 10 53 10.36 +16 29 05.6 19.2 V 691 – Steward Observatory, Kitt Peak-Spacewatch MPS 96383
1997 03 12.21737 10 53 09.15 +16 29 13.7 19.1 V 691 – Steward Observatory, Kitt Peak-Spacewatch MPS 96383
1997 03 12.23979 10 53 07.90 +16 29 21.9 19.1 V 691 – Steward Observatory, Kitt Peak-Spacewatch MPS 96383
1999 10 08.26229 02 00 26.18 -00 22 06.4 18.5   704 – Lincoln Laboratory ETS, New Mexico MPS 94791
1999 10 08.27821 02 00 25.45 -00 22 12.4 18.6   704 – Lincoln Laboratory ETS, New Mexico MPS 94791
1999 10 08.29411 02 00 24.69 -00 22 18.4 18.8   704 – Lincoln Laboratory ETS, New Mexico MPS 94791
1999 10 08.30978 02 00 23.92 -00 22 25.2 18.7   704 – Lincoln Laboratory ETS, New Mexico MPS 94791
1999 10 08.32539 02 00 23.13 -00 22 31.5 18.7   704 – Lincoln Laboratory ETS, New Mexico MPS 94791
1999 11 02.24889 01 38 08.77 -02 30 12.6 18.3 R 703 – Catalina Sky Survey MPS 94791
1999 11 02.26535 01 38 07.96 -02 30 16.4 18.8 R 703 – Catalina Sky Survey MPS 94791
1999 11 02.28182 01 38 06.93 -02 30 18.7 18.5 R 703 – Catalina Sky Survey MPS 94791
1999 11 02.29836 01 38 06.04 -02 30 21.1 19.0 R 703 – Catalina Sky Survey MPS 94791
2001 05 24.246770 13 44 44.754 -01 13 33.64 20.45 V 645 – Apache Point-Sloan Digital Sky Survey MPS 95839
2001 05 24.250242 13 44 44.649 -01 13 33.72 21.14   645 – Apache Point-Sloan Digital Sky Survey MPS 95839
2003 11 21.39614 08 13 30.98 +16 39 41.4 19.5   704 – Lincoln Laboratory ETS, New Mexico MPS 92096
2003 11 21.40923 08 13 31.48 +16 39 41.4 19.6   704 – Lincoln Laboratory ETS, New Mexico MPS 92096
2003 11 21.42269 08 13 32.13 +16 39 41.8 20.0   704 – Lincoln Laboratory ETS, New Mexico MPS 92096
2003 11 21.43583 08 13 32.70 +16 39 42.2 20.0   704 – Lincoln Laboratory ETS, New Mexico MPS 92096
2003 11 21.44889 08 13 33.23 +16 39 41.5 20.2   704 – Lincoln Laboratory ETS, New Mexico MPS 92096
2003 11 23.37076 08 14 54.61 +16 40 16.1   704 – Lincoln Laboratory ETS, New Mexico MPS 406748
2003 11 23.38348 08 14 55.11 +16 40 15.9   704 – Lincoln Laboratory ETS, New Mexico MPS 406748
2003 11 23.39646 08 14 55.62 +16 40 17.2   704 – Lincoln Laboratory ETS, New Mexico MPS 406748
2003 11 24.45072 08 15 36.80 +16 40 51.6 18.4 V 703 – Catalina Sky Survey MPS 92096
2003 11 24.46225 08 15 37.07 +16 40 53.1 19.2 V 703 – Catalina Sky Survey MPS 92096
2003 11 24.47377 08 15 37.72 +16 40 53.8 19.1 V 703 – Catalina Sky Survey MPS 92096
2003 11 24.48532 08 15 38.05 +16 40 53.5 19.3 V 703 – Catalina Sky Survey MPS 92096
2003 12 01.39217 08 19 09.88 +16 49 25.1   704 – Lincoln Laboratory ETS, New Mexico MPS 406748
2003 12 16.34509 08 20 38.95 +17 39 00.2 18.3 R 699 – Lowell Observatory-LONEOS MPS 94791
2003 12 16.36175 08 20 38.76 +17 39 04.5   699 – Lowell Observatory-LONEOS MPS 94791
2003 12 16.37841 08 20 38.52 +17 39 10.4   699 – Lowell Observatory-LONEOS MPS 94791
2003 12 16.39507 08 20 38.22 +17 39 13.7   699 – Lowell Observatory-LONEOS MPS 94791
2003 12 19.40828 08 19 52.11 +17 54 41.2 18.5   704 – Lincoln Laboratory ETS, New Mexico MPS 94791
2003 12 19.42101 08 19 51.82 +17 54 46.3 18.7   704 – Lincoln Laboratory ETS, New Mexico MPS 94791
2003 12 19.43405 08 19 51.54 +17 54 49.8 19.3   704 – Lincoln Laboratory ETS, New Mexico MPS 94791
2003 12 19.44674 08 19 51.25 +17 54 53.6 19.1   704 – Lincoln Laboratory ETS, New Mexico MPS 94791
2003 12 19.45944 08 19 50.96 +17 54 58.0 19.1   704 – Lincoln Laboratory ETS, New Mexico MPS 94791
2003 12 21.40280 08 19 09.97 +18 05 52.3 18.3   704 – Lincoln Laboratory ETS, New Mexico MPS 94791
2003 12 21.41599 08 19 09.63 +18 05 57.1 18.7   704 – Lincoln Laboratory ETS, New Mexico MPS 94791
2003 12 21.42905 08 19 09.28 +18 06 01.9 19.0   704 – Lincoln Laboratory ETS, New Mexico MPS 94791
2003 12 21.44230 08 19 08.93 +18 06 06.3 18.8   704 – Lincoln Laboratory ETS, New Mexico MPS 94791
2003 12 21.45536 08 19 08.55 +18 06 10.7 18.6   704 – Lincoln Laboratory ETS, New Mexico MPS 94791
2003 12 26.49120 08 16 42.24 +18 37 39.5 19.1   608 – Haleakala-AMOS MPS 96639
2003 12 26.50173 08 16 41.84 +18 37 43.6 19.2   608 – Haleakala-AMOS MPS 96639
2003 12 26.51237 08 16 41.42 +18 37 48.0 19.2   608 – Haleakala-AMOS MPS 96639
2003 12 27.31189 08 16 13.38 +18 43 09.8 18.8 V 291 – LPL/Spacewatch II MPS 95839
2003 12 27.33649 08 16 12.38 +18 43 20.1 18.8 V 291 – LPL/Spacewatch II MPS 95839
2003 12 27.36247 08 16 11.31 +18 43 31.0 18.6 V 291 – LPL/Spacewatch II MPS 95839
2003 12 28.28332 08 15 37.39 +18 49 49.4 18.1 R 333 – Desert Eagle Observatory MPS 95839
2003 12 28.29161 08 15 37.05 +18 49 53.0 18.2 R 333 – Desert Eagle Observatory MPS 95839
2003 12 28.29966 08 15 36.74 +18 49 56.5 18.1 R 333 – Desert Eagle Observatory MPS 95839
2003 12 28.39588 08 15 32.93 +18 50 37.2 14.7 R 333 – Desert Eagle Observatory MPS 95839
2003 12 28.40384 08 15 32.42 +18 50 39.8 18.0 R 333 – Desert Eagle Observatory MPS 95839
2003 12 28.41182 08 15 32.09 +18 50 43.0 18.0 R 333 – Desert Eagle Observatory MPS 95839
2003 12 28.52077 08 15 27.60 +18 51 28.6 18.6 V 691 – Steward Observatory, Kitt Peak-Spacewatch MPS 95839
2003 12 28.53401 08 15 27.06 +18 51 34.0 18.6 V 691 – Steward Observatory, Kitt Peak-Spacewatch MPS 95839
2003 12 28.54723 08 15 26.53 +18 51 39.4 18.5 V 691 – Steward Observatory, Kitt Peak-Spacewatch MPS 95839
2003 12 29.31462 08 14 57.01 +18 57 03.8 17.7 R 699 – Lowell Observatory-LONEOS MPS 95839
2003 12 29.33128 08 14 56.28 +18 57 10.4   699 – Lowell Observatory-LONEOS MPS 95839
2003 12 29.34790 08 14 55.52 +18 57 18.3   699 – Lowell Observatory-LONEOS MPS 95839
2003 12 29.36452 08 14 54.83 +18 57 24.5   699 – Lowell Observatory-LONEOS MPS 95839
2004 01 13.18498 08 02 16.68 +20 52 28.9 17.7 R 699 – Lowell Observatory-LONEOS MPS 96639
2004 01 13.20505 08 02 15.46 +20 52 38.9   699 – Lowell Observatory-LONEOS MPS 96639
2004 01 13.22506 08 02 14.25 +20 52 48.7   699 – Lowell Observatory-LONEOS MPS 96639
2004 01 13.24506 08 02 12.99 +20 52 58.7   699 – Lowell Observatory-LONEOS MPS 96639
2004 01 15.36749 08 00 06.33 +21 10 06.8 18.2 V 691 – Steward Observatory, Kitt Peak-Spacewatch MPS 96639
2004 01 15.39683 08 00 04.47 +21 10 20.8 18.2 V 691 – Steward Observatory, Kitt Peak-Spacewatch MPS 96639
2004 01 15.42336 08 00 02.80 +21 10 33.4 18.1 V 691 – Steward Observatory, Kitt Peak-Spacewatch MPS 96639
2004 01 21.30342 07 54 09.73 +21 57 01.2 17.6   704 – Lincoln Laboratory ETS, New Mexico MPS 97027
2004 01 21.31631 07 54 08.91 +21 57 07.0 17.7   704 – Lincoln Laboratory ETS, New Mexico MPS 97027
2004 01 21.32965 07 54 08.07 +21 57 13.1 17.9   704 – Lincoln Laboratory ETS, New Mexico MPS 97027
2004 01 21.34280 07 54 07.24 +21 57 19.5 18.1   704 – Lincoln Laboratory ETS, New Mexico MPS 97027
2004 01 21.35567 07 54 06.44 +21 57 25.0 17.6   704 – Lincoln Laboratory ETS, New Mexico MPS 97027
2004 01 22.28723 07 53 11.30 +22 04 34.0 17.8   704 – Lincoln Laboratory ETS, New Mexico MPS 97027
2004 01 22.30022 07 53 10.55 +22 04 39.8 17.9   704 – Lincoln Laboratory ETS, New Mexico MPS 97027
2004 01 22.31301 07 53 09.75 +22 04 45.8 18.1   704 – Lincoln Laboratory ETS, New Mexico MPS 97027
2004 01 22.32602 07 53 08.92 +22 04 51.7 18.2   704 – Lincoln Laboratory ETS, New Mexico MPS 97027
2004 01 22.33890 07 53 08.15 +22 04 57.4 17.9   704 – Lincoln Laboratory ETS, New Mexico MPS 97027
2004 01 24.27709 07 51 14.99 +22 19 31.7 18.2   704 – Lincoln Laboratory ETS, New Mexico MPS 97823
2004 01 24.29021 07 51 14.18 +22 19 37.5 18.4   704 – Lincoln Laboratory ETS, New Mexico MPS 97823
2004 01 24.30315 07 51 13.46 +22 19 43.3 18.5   704 – Lincoln Laboratory ETS, New Mexico MPS 97823
2004 01 24.31607 07 51 12.62 +22 19 49.1 18.4   704 – Lincoln Laboratory ETS, New Mexico MPS 97823
2004 01 24.32890 07 51 11.84 +22 19 54.5 18.4   704 – Lincoln Laboratory ETS, New Mexico MPS 97823
2004 01 27.36488 07 48 20.48 +22 41 52.8 18.3 V 691 – Steward Observatory, Kitt Peak-Spacewatch MPS 97823
2004 01 27.39398 07 48 18.80 +22 42 04.8 18.4 V 691 – Steward Observatory, Kitt Peak-Spacewatch MPS 97823
2004 01 27.42492 07 48 17.03 +22 42 17.5 18.6 V 691 – Steward Observatory, Kitt Peak-Spacewatch MPS 97823
2004 01 30.27402 07 45 46.12 +23 01 49.3 18.3   704 – Lincoln Laboratory ETS, New Mexico MPS 97823
